Regional Weather Roundup
Issued by NWS

Home | Current Version | Previous Version | Text Only | Print | Product List | Glossary Off
Versions: 1 2 3 4 5 6 7 8 9 10 11 12 13 14 15 16 17 18 19 20 21 22 23 24 25 26 27 28 29 30 31 32 33 34 35 36 37 38 39 40 41 42 43 44 45 46 47 48 49 50

000
ASUS43 KLMK 260410
RWRKY
KENTUCKY REGIONAL WEATHER ROUNDUP
NATIONAL WEATHER SERVICE LOUISVILLE KY
1100 PM EST SAT FEB 25 2017

NOTE "FAIR" INDICATES FEW OR NO CLOUDS BELOW 12,000 FEET
WITH NO SIGNIFICANT WEATHER AND/OR OBSTRUCTIONS TO VISIBILITY.

KYZ001>023-026-027-061>063-070>075-260500-
WESTERN AND SOUTH CENTRAL KENTUCKY

CITY           SKY/WX    TMP DP  RH WIND       PRES   REMARKS
PADUCAH        CLEAR     28  20  71 CALM      30.15R
HENDERSON      CLEAR     27  18  69 W5        30.15R WCI  21
OWENSBORO      PTCLDY    29  21  72 CALM      30.15R
HOPKINSVILLE   CLEAR     33  19  56 CALM      30.14R
BOWLING GREEN  CLEAR     35  18  49 CALM      30.15R
GLASGOW        CLEAR     28  22  77 CALM      30.14R
$$

KYZ024-025-028>034-038-045-046-053-260500-
NORTH CENTRAL KENTUCKY

CITY           SKY/WX    TMP DP  RH WIND       PRES   REMARKS
LOUISVILLE/SDF CLEAR     32  15  49 SW6       30.12R WCI  26
LOUISVILLE/LOU CLEAR     32  17  54 SW3       30.12R
FORT KNOX      CLEAR     28  18  67 SW3       30.09S
$$

KYZ035>037-039>044-047>052-055>060-089>105-260500-
NORTHEAST KENTUCKY

CITY           SKY/WX    TMP DP  RH WIND       PRES   REMARKS
LEXINGTON      CLEAR     31  17  56 W6        30.10R WCI  25
COVINGTON      PTCLDY    28  17  63 SW6       30.05R WCI  22
FRANKFORT      CLEAR     30  17  58 W5        30.09R WCI  25
$$

KYZ054-064>069-076>088-106>120-260500-
SOUTHEAST KENTUCKY

CITY           SKY/WX    TMP DP  RH WIND       PRES   REMARKS
JACKSON        MOCLDY    30  19  63 SW5       30.08R WCI  25
LONDON         CLEAR     30  19  63 CALM      30.10R
SOMERSET       CLEAR     30  21  69 CALM      30.13S
MIDDLESBORO    CLEAR     33  20  61 N5        30.12S WCI  28
MONTICELLO     CLEAR     24  22  91 N8        30.15R WCI  15
$$





USA.gov is the U.S. government's official web portal to all federal, state and local government web resources and services.